Weather History for Steamboat Springs, CO

Change the Weather History Date:

Thursday, March 8, 2012

  Actual Average Record
Temperature  
Mean Temperature 28 °F -  
Max Temperature 41 °F 41 °F 57 °F (1992)
Min Temperature 16 °F 13 °F -22 °F (1964)
Degree Days  
Heating Degree Days 36    
Moisture  
Dew Point 14 °F    
Average Humidity 60    
Maximum Humidity 95    
Minimum Humidity 25    
Precipitation  
Precipitation 0.00 in - - ()
Sea Level Pressure  
Sea Level Pressure 30.34 in    
Wind  
Wind Speed 1 mph (South)    
Max Wind Speed 6 mph    
Max Gust Speed -    
Visibility 10 miles    
Events      
Averages and records for this station are not official NWS values.
T = Trace of Precipitation, MM = Missing Value Source: NWS Daily Summary

Daily Weather History Graph

Daily Weather History Graph

Search for Another Location

Airport:

Trip Planner

Search our weather history database for the weather conditions in past years. The results will help you decide how hot, cold, wet, or windy it might be!

Date:

Astronomy

Mar. 08, 2012 Rise Set
Actual Time 6:29 AM MST 6:07 PM MST
Civil Twilight 6:02 AM MST 6:34 PM MST
Nautical Twilight 5:30 AM MST 7:06 PM MST
Astronomical Twilight 4:58 AM MST 7:38 PM MST
Moon 6:58 PM MST (3/8) 6:14 AM MST (3/8)
Length of Visible Light 12h 32m
Length of Day
11h 37m
Full, 100% of the Moon is Illuminated
Mar 8
Full
Mar 14
Last Quarter
Mar 22
New
Mar 30
First Quarter
Apr 6
Full

Hourly Weather History & Observations

Time (MST) Temp. Windchill Dew Point Humidity Pressure Visibility Wind Dir Wind Speed Gust Speed Precip Events Conditions
12:16 AM 26.1 °F - 21.0 °F 81% 30.17 in 10.0 mi Calm Calm - N/A   Scattered Clouds
12:36 AM 24.8 °F - 22.1 °F 89% 30.18 in 10.0 mi Calm Calm - N/A   Clear
12:56 AM 24.8 °F - 21.7 °F 88% 30.18 in 10.0 mi Calm Calm - N/A   Clear
1:16 AM 23.9 °F 19.5 °F 21.2 °F 89% 30.19 in 10.0 mi East 3.5 mph - N/A   Clear
1:36 AM 23.7 °F 19.3 °F 21.6 °F 91% 30.21 in 10.0 mi East 3.5 mph - N/A   Clear
1:56 AM 23.9 °F 16.8 °F 19.8 °F 84% 30.21 in 10.0 mi East 5.8 mph - N/A   Clear
2:16 AM 23.7 °F - 21.6 °F 91% 30.22 in 10.0 mi Calm Calm - N/A   Clear
2:36 AM 21.9 °F - 19.2 °F 89% 30.22 in 10.0 mi Calm Calm - N/A   Clear
2:56 AM 22.8 °F - 19.0 °F 85% 30.23 in 10.0 mi Calm Calm - N/A   Clear
3:16 AM 21.9 °F - 19.4 °F 90% 30.23 in 10.0 mi Calm Calm - N/A   Clear
3:36 AM 21.0 °F - 17.2 °F 85% 30.24 in 10.0 mi Calm Calm - N/A   Clear
3:56 AM 21.0 °F - 16.9 °F 84% 30.25 in 10.0 mi Calm Calm - N/A   Clear
4:16 AM 19.9 °F - 14.7 °F 80% 30.26 in 10.0 mi Calm Calm - N/A   Clear
4:36 AM 19.2 °F - 17.6 °F 93% 30.27 in 10.0 mi Calm Calm - N/A   Clear
4:56 AM 18.0 °F - 15.4 °F 90% 30.28 in 10.0 mi Calm Calm - N/A   Clear
5:16 AM 19.2 °F - 14.9 °F 83% 30.28 in 10.0 mi Calm Calm - N/A   Clear
5:36 AM 17.1 °F - 15.8 °F 95% 30.29 in 10.0 mi Calm Calm - N/A   Clear
5:56 AM 17.4 °F - 12.6 °F 81% 30.29 in 10.0 mi Calm Calm - N/A   Clear
6:16 AM 17.1 °F - 14.5 °F 90% 30.30 in 10.0 mi Calm Calm - N/A   Clear
6:36 AM 16.3 °F 9.2 °F 14.0 °F 90% 30.31 in 10.0 mi West 4.6 mph - N/A   Clear
6:56 AM 16.2 °F - 14.5 °F 93% 30.32 in 10.0 mi Calm Calm - N/A   Clear
7:16 AM 16.2 °F - 14.5 °F 93% 30.32 in 10.0 mi Calm Calm - N/A   Clear
7:56 AM 18.9 °F - 11.8 °F 74% 30.34 in 10.0 mi Calm Calm - N/A   Clear
8:16 AM 19.9 °F - 11.3 °F 69% 30.36 in 10.0 mi Calm Calm - N/A   Clear
8:36 AM 19.9 °F - 12.0 °F 71% 30.36 in 10.0 mi Calm Calm - N/A   Clear
8:56 AM 22.8 °F - 11.1 °F 61% 30.36 in 10.0 mi Calm Calm - N/A   Clear
9:16 AM 22.5 °F - 13.1 °F 67% 30.36 in 10.0 mi Calm Calm - N/A   Clear
9:36 AM 24.6 °F - 14.4 °F 65% 30.38 in 10.0 mi Calm Calm - N/A   Clear
9:56 AM 26.6 °F - 14.0 °F 59% 30.38 in 10.0 mi Calm Calm - N/A   Clear
10:16 AM 27.7 °F - 14.0 °F 57% 30.39 in 10.0 mi Calm Calm - N/A   Clear
10:36 AM 31.1 °F - 15.4 °F 52% 30.40 in 10.0 mi Calm Calm - N/A   Clear
10:56 AM 32.5 °F - 14.9 °F 48% 30.40 in 10.0 mi Calm Calm - N/A   Clear
11:16 AM 32.9 °F - 16.3 °F 51% 30.39 in 10.0 mi Calm Calm - N/A   Clear
11:36 AM 33.8 °F - 14.4 °F 45% 30.40 in 10.0 mi Calm Calm - N/A   Clear
11:56 AM 35.4 °F - 12.9 °F 40% 30.40 in 10.0 mi Calm Calm - N/A   Clear
12:16 PM 36.9 °F - 12.4 °F 37% 30.40 in 10.0 mi Calm Calm - N/A   Clear
12:36 PM 37.8 °F 35.3 °F 8.8 °F 30% 30.40 in 10.0 mi WSW 3.5 mph - N/A   Clear
12:56 PM 38.8 °F - 7.7 °F 28% 30.39 in 10.0 mi Calm Calm - N/A   Clear
1:16 PM 38.8 °F - 10.0 °F 31% 30.39 in 10.0 mi Calm Calm - N/A   Clear
1:36 PM 39.4 °F 37.2 °F 9.5 °F 29% 30.38 in 10.0 mi NW 3.5 mph - N/A   Clear
1:56 PM 40.1 °F - 9.5 °F 28% 30.38 in 10.0 mi Calm Calm - N/A   Clear
2:16 PM 40.8 °F - 7.5 °F 25% 30.38 in 10.0 mi Calm Calm - N/A   Clear
2:36 PM 41.0 °F 39.0 °F 10.6 °F 29% 30.39 in 10.0 mi SW 3.5 mph - N/A   Clear
2:56 PM 41.2 °F 38.2 °F 11.5 °F 30% 30.39 in 10.0 mi SW 4.6 mph - N/A   Clear
3:16 PM 41.4 °F 38.4 °F 11.1 °F 29% 30.40 in 10.0 mi SW 4.6 mph - N/A   Clear
3:36 PM 41.2 °F 39.2 °F 10.0 °F 28% 30.40 in 10.0 mi South 3.5 mph - N/A   Clear
3:56 PM 41.0 °F - 10.2 °F 28% 30.40 in 10.0 mi Calm Calm - N/A   Clear
4:16 PM 40.6 °F 38.6 °F 10.6 °F 29% 30.41 in 10.0 mi SW 3.5 mph - N/A   Clear
4:36 PM 40.1 °F 38.0 °F 9.7 °F 29% 30.41 in 10.0 mi SW 3.5 mph - N/A   Clear
4:56 PM 39.2 °F - 10.8 °F 31% 30.42 in 10.0 mi Calm Calm - N/A   Clear
5:16 PM 38.8 °F - 10.2 °F 31% 30.42 in 10.0 mi Calm Calm - N/A   Clear
5:36 PM 38.3 °F - 10.9 °F 32% 30.42 in 10.0 mi Calm Calm - N/A   Clear
5:56 PM 36.7 °F - 12.0 °F 36% 30.43 in 10.0 mi Calm Calm - N/A   Clear
6:16 PM 35.2 °F - 12.7 °F 40% 30.44 in 10.0 mi Calm Calm - N/A   Clear
6:36 PM 34.3 °F - 13.3 °F 42% 30.45 in 10.0 mi Calm Calm - N/A   Clear
6:56 PM 31.1 °F 27.7 °F 15.4 °F 52% 30.45 in 10.0 mi ESE 3.5 mph - N/A   Clear
7:16 PM 31.8 °F 28.5 °F 15.6 °F 51% 30.46 in 10.0 mi East 3.5 mph - N/A   Clear
7:36 PM 30.6 °F 27.1 °F 14.9 °F 52% 30.46 in 10.0 mi East 3.5 mph - N/A   Clear
7:56 PM 29.3 °F - 14.9 °F 55% 30.48 in 10.0 mi Calm Calm - N/A   Clear
8:16 PM 27.1 °F 21.8 °F 14.5 °F 59% 30.48 in 10.0 mi SE 4.6 mph - N/A   Clear
8:36 PM 29.3 °F 25.6 °F 14.4 °F 54% 30.50 in 10.0 mi SSE 3.5 mph - N/A   Clear
8:56 PM 25.9 °F - 14.9 °F 63% 30.50 in 10.0 mi Calm Calm - N/A   Clear
9:16 PM 27.9 °F - 14.9 °F 58% 30.51 in 10.0 mi Calm Calm - N/A   Clear
9:56 PM 25.3 °F - 14.7 °F 64% 30.51 in 10.0 mi Calm Calm - N/A   Clear
10:16 PM 25.0 °F - 14.5 °F 65% 30.51 in 10.0 mi Calm Calm - N/A   Clear
10:36 PM 25.3 °F - 14.0 °F 62% 30.52 in 10.0 mi Calm Calm - N/A   Clear
10:56 PM 24.8 °F - 14.4 °F 65% 30.52 in 10.0 mi Calm Calm - N/A   Clear
11:16 PM 25.0 °F - 14.0 °F 63% 30.52 in 10.0 mi Calm Calm - N/A   Clear
11:36 PM 22.3 °F - 14.2 °F 71% 30.51 in 10.0 mi Calm Calm - N/A   Clear
11:56 PM 21.2 °F - 13.1 °F 71% 30.52 in 10.0 mi Calm Calm - N/A   Clear